SCP
0 0 0 0 0 0 1 1 0 0 0 0 0 0 0 0 0 0 0 0 0 0 0 0 0 0 0 0 0 0 0 0 0 0 0 0 0 0 -0 -0 0 -0 -0
0 0 0 0 0 0 0 0 0 0 0 0 0 0 0 0 0 0 0 0 0 0 0 0 0 0 0 0 0 0 0 0 0 0 0 0 0 0 -0 0 0 -0 -0
0 0 0 0 0 0 0 0 0 0 0 0 0 0 0 0 0 0 0 0 0 0 0 0 0 0 0 0 0 0 0 0 0 0 0 0 0 0 0 0 0 0 -0
0 0 0 0 0 0 0 0 0 0 0 0 0 0 0 0 0 0 0 0 0 0 0 0 0 0 0 0 0 0 0 0 0 0 0 0 0 0 0 0 0 0 -0
0 0 0 0 0 0 0 0 0 0 0 0 0 0 0 0 0 0 0 0 0 0 0 0 0 0 0 0 0 0 0 0 0 0 0 0 0 0 0 0 0 0 -0
0 0 0 0 0 0 0 0 0 0 0 0 0 0 0 0 0 0 0 0 0 0 0 0 0 0 0 0 0 0 0 0 0 0 0 0 0 0 0 0 0 -0 -0
0 0 0 0 0 0 0 0 0 0 0 0 0 0 0 0 0 0 0 0 0 0 0 0 0 0 0 0 0 0 0 0 0 0 0 0 0 0 0 0 0 -0 -0
0 0 0 0 0 0 0 0 0 0 0 0 0 0 0 0 0 0 0 0 0 0 0 0 0 0 0 0 0 0 0 0 0 0 0 0 0 0 0 -0 -0 -0 0
0 0 0 0 0 0 0 0 0 0 0 0 0 0 0 0 0 0 0 0 0 0 0 0 0 0 0 0 0 0 0 0 0 0 0 0 0 0 0 -0 -0 -0 0
0 0 0 0 0 0 0 0 0 0 0 0 0 0 0 0 0 0 0 0 0 0 0 0 0 0 0 0 0 0 0 0 0 0 0 0 0 0 0 -0 0 0 0
0 0 0 0 0 0 0 0 0 0 0 0 0 0 0 0 0 0 0 0 0 0 0 0 0 0 0 0 0 0 0 0 0 0 0 0 0 0 -0 0 0 0 0
0 0 0 0 0 0 0 0 0 0 0 0 0 0 0 0 0 0 0 0 0 0 0 0 0 0 0 0 0 0 0 0 0 0 0 0 0 0 0 0 0 0 -0
0 0 0 0 0 0 0 0 0 0 0 0 0 0 0 0 0 0 0 0 0 0 0 0 0 0 0 0 0 0 0 0 0 0 0 0 0 0 0 0 0 0 0
0 0 0 0 0 0 0 0 0 0 0 0 0 0 0 0 0 0 0 0 0 0 0 0 0 0 0 0 0 0 0 0 0 0 0 0 0 0 0 -0 -0 0 0
0 0 0 0 0 0 0 0 0 0 0 0 0 0 -0 -0 0 0 0 0 0 0 0 0 0 0 0 0 0 0 0 0 0 0 0 0 0 0 0 -0 -0 0 0
0 0 0 0 0 0 0 0 0 0 0 0 0 0 0 0 -0 -0 0 0 0 0 0 0 0 0 0 0 0 0 0 0 0 0 -0 -0 -0 -0 0 0 -0 -0 0
0 0 0 0 0 0 0 0 0 0 0 0 -0 0 0 0 -0 -0 0 0 0 0 0 0 0 0 0 0 0 0 0 0 0 -0 -0 -0 -0 0 0 0 0 0 0
0 0 0 0 0 0 0 0 0 0 0 0 -0 -0 0 0 -0 0 0 -0 -0 0 0 0 0 0 0 0 0 0 0 0 0 0 -0 -0 0 -0 0 0 0 0 0
0 0 0 0 0 0 0 0 0 0 0 0 0 -0 -0 -0 0 0 0 0 0 0 0 0 0 0 0 0 0 0 0 0 0 0 -0 0 0 0 0 0 0 0 -0
0 0 0 0 0 0 0 0 0 0 0 0 0 -0 -0 0 0 0 0 0 0 0 0 0 0 0 0 0 0 0 0 0 0 0 0 0 0 -0 -0 -0 0 -0 -0
0 0 -0 -0 -0 0 0 0 0 0 0 0 0 -0 -0 0 0 0 0 0 0 0 0 0 0 0 0 0 0 0 0 0 0 0 0 0 0 0 0 0 -0 -0 -0
0 0 -0 -0 -0 -0 0 -0 0 0 0 0 0 0 0 -0 0 0 0 0 0 0 0 0 0 0 0 0 0 0 0 0 0 0 0 0 0 0 0 -0 0 0 -0
0 0 0 -0 -0 -0 -0 -0 -0 0 0 0 0 0 0 0 0 0 0 0 0 0 0 0 0 0 0 0 0 0 0 0 0 0 0 0 0 0 0 0 0 -0 -0
0 0 0 0 -0 -0 -0 -0 0 0 0 0 0 0 0 0 -0 0 0 0 0 0 0 0 0 0 0 0 0 0 0 0 0 0 0 0 0 0 0 0 -0 -0 -0
0 0 0 0 -0 -0 0 -0 -0 0 0 0 0 0 0 0 0 0 0 0 0 0 0 0 0 0 0 0 0 0 0 0 0 0 0 0 0 0 0 -0 -0 0 -0
0 0 0 0 0 -0 0 -0 -0 0 0 0 0 0 0 0 0 0 0 0 0 0 0 0 0 0 0 0 0 0 0 0 0 0 0 0 0 0 -0 -0 0 -0 0
Wind_Speed_500mb
81 71 63 56 51 44 41 37 34 31 26 23 22 24 23 23 24 23 21 20 23 19 30 39 39 34 35 34 26 19 31 32 35 41 39 40 33 30 23 28 28 24 25
88 69 66 62 55 48 43 39 34 33 30 28 29 29 29 28 27 30 32 29 29 22 25 33 36 39 39 34 28 25 31 36 39 39 40 39 35 28 24 26 29 24 27
85 69 68 63 57 51 46 40 36 36 36 34 35 35 34 32 33 31 31 31 30 28 26 31 38 38 39 36 29 27 31 40 39 40 40 37 30 26 21 23 24 21 23
69 66 63 63 57 51 43 36 36 39 39 38 39 40 39 36 37 36 33 32 30 28 29 28 31 33 38 37 33 25 31 42 41 39 35 35 33 27 21 22 24 23 24
52 53 53 53 50 46 35 30 34 38 39 39 41 39 42 44 41 42 38 36 31 27 27 23 26 31 32 33 32 29 30 41 42 42 38 32 29 27 23 21 23 26 28
42 40 42 40 45 40 28 27 30 36 38 38 40 43 43 44 40 44 37 34 33 29 30 29 24 29 27 29 34 32 32 40 41 40 38 30 31 28 22 23 21 25 31
41 40 37 34 37 31 25 24 28 33 38 40 43 44 39 34 36 37 38 35 32 29 31 32 28 24 22 14 24 30 31 37 37 40 39 31 29 28 25 22 23 29 42
38 33 24 30 28 32 29 26 29 36 41 41 37 32 24 28 35 39 38 33 27 28 31 32 34 27 20 17 19 27 29 32 34 38 39 33 31 25 25 28 28 31 43
34 20 25 21 25 29 26 29 33 37 39 34 29 23 9 15 10 29 36 35 32 27 30 37 40 32 22 18 17 27 28 30 33 36 40 33 32 30 30 25 30 33 16
25 28 27 24 18 24 29 32 36 34 30 26 24 28 27 9 9 6 14 30 34 29 28 33 35 39 34 24 16 19 25 32 32 37 39 37 34 32 32 33 37 28 32
35 29 26 21 26 28 29 32 31 25 24 22 23 22 32 31 16 5 4 14 30 32 29 32 28 28 28 28 19 18 26 31 33 35 38 39 35 34 39 47 31 33 30
29 24 25 26 27 27 28 23 20 21 20 21 23 26 27 33 36 29 18 6 25 35 33 30 30 28 26 26 21 18 19 31 33 35 37 40 38 37 38 44 34 39 36
22 23 25 23 25 26 20 16 13 10 7 15 19 24 27 30 30 23 24 13 23 29 29 31 27 28 27 26 21 23 21 30 33 32 35 39 40 47 37 38 42 40 38
18 20 22 23 22 17 17 17 17 17 14 20 17 16 20 25 28 26 23 26 18 24 28 29 29 26 26 26 24 28 24 31 32 31 38 41 42 47 45 43 45 39 42
17 19 18 15 13 14 13 15 21 24 23 22 17 17 19 19 24 29 25 28 28 23 25 29 22 30 28 27 25 31 27 32 33 33 45 44 42 49 51 46 41 41 30
14 14 16 12 11 9 10 16 22 21 22 17 16 18 19 22 24 26 29 27 26 28 31 31 29 28 27 29 31 30 28 32 29 25 41 47 45 50 50 43 41 33 26
16 16 13 10 6 5 10 15 21 20 16 14 15 11 12 20 24 27 28 28 24 32 26 27 28 21 24 31 34 33 30 30 25 36 48 72 52 47 43 48 39 31 36
19 18 13 8 2 10 17 16 17 19 26 21 17 13 16 15 22 26 25 24 30 31 24 24 32 29 24 30 35 37 38 33 39 47 48 39 45 51 53 47 35 37 33
21 15 8 5 9 12 11 8 13 22 27 32 29 16 18 18 20 23 29 32 32 29 25 29 42 34 42 41 48 54 46 50 43 31 33 58 58 52 43 36 38 35 27
18 12 8 7 9 10 8 14 19 16 20 30 25 19 18 18 19 20 25 26 39 35 30 40 47 43 40 50 49 60 73 75 58 54 56 48 46 49 48 39 34 29 21
14 10 4 6 10 11 11 8 7 5 5 8 14 16 15 16 18 21 23 31 40 40 36 49 55 61 49 61 74 76 81 74 65 61 62 59 50 48 44 36 25 21 20
14 10 3 7 10 13 11 12 7 8 13 15 12 11 16 23 24 22 20 24 36 46 56 55 64 72 78 62 67 73 82 73 71 58 63 62 43 42 35 29 28 25 17
16 12 4 7 10 14 13 13 12 15 19 17 12 8 9 14 26 21 21 28 44 42 46 50 63 65 70 62 69 81 82 83 82 70 55 46 40 44 38 34 27 18 17
17 11 2 5 9 13 13 14 16 19 21 17 14 10 15 18 20 40 42 44 42 42 49 48 49 57 57 58 73 80 82 69 62 57 50 55 47 40 34 27 22 20 16
19 11 3 4 5 10 14 16 15 16 20 23 20 27 28 27 26 33 43 48 48 47 44 29 41 47 56 68 86 83 77 71 63 57 50 42 42 36 29 25 23 21 17
16 11 6 1 4 7 12 14 15 14 25 28 30 32 29 29 32 31 34 43 52 51 42 39 50 48 60 80 72 64 65 59 61 55 48 36 36 31 23 25 23 22 20
Wind_Direction_500mb
243 244 242 244 248 250 253 252 256 261 263 266 272 275 271 264 265 262 255 261 268 258 234 232 229 228 219 218 224 229 214 216 215 209 212 206 210 215 221 214 215 216 219
246 246 248 248 248 252 254 254 257 261 265 265 271 274 271 262 262 263 264 257 254 255 240 234 232 227 220 226 226 225 214 213 213 218 214 216 217 217 215 216 219 223 224
249 249 252 248 248 252 250 251 256 259 261 267 272 275 271 264 263 269 267 257 254 252 250 240 234 232 223 218 227 225 215 210 217 216 221 218 214 215 217 216 214 215 220
252 252 250 246 246 248 240 251 260 263 266 272 276 277 270 266 265 266 259 259 257 252 245 239 230 223 219 219 223 224 216 209 213 215 212 219 219 216 215 205 210 208 209
252 243 240 238 240 236 238 259 265 269 270 272 278 278 276 274 266 259 261 253 249 250 236 235 222 220 222 225 226 226 213 208 209 212 210 214 211 206 207 210 211 207 204
239 235 237 233 225 222 242 264 274 270 264 271 280 278 273 269 255 253 255 244 241 246 232 231 219 218 218 228 231 226 210 203 209 209 208 204 204 205 206 208 210 204 193
226 229 225 220 212 219 245 260 263 263 270 276 277 278 273 267 251 257 244 240 235 239 229 219 214 199 211 226 218 209 209 200 205 207 204 201 201 203 217 207 197 200 197
218 220 216 201 216 224 242 263 272 276 277 278 274 272 277 258 250 247 239 228 235 232 223 215 210 205 216 223 208 203 206 202 201 206 205 203 200 208 200 202 196 208 179
208 205 210 208 214 224 253 271 275 280 281 275 264 238 237 234 258 234 229 227 225 236 223 211 208 212 216 208 209 208 205 202 199 204 206 199 200 200 194 211 197 207 182
197 196 198 208 224 250 265 270 281 282 274 269 254 236 222 223 204 168 210 226 227 224 219 206 213 220 215 210 211 207 204 205 200 202 200 201 199 199 192 206 203 179 160
185 182 199 216 247 260 267 276 278 273 270 258 247 238 224 220 202 163 115 233 213 210 206 204 205 197 213 212 218 207 207 204 200 201 194 196 190 193 186 182 176 156 178
181 195 209 233 248 258 272 268 265 267 266 258 243 240 236 233 231 239 226 212 196 198 198 200 203 209 206 198 207 207 205 199 197 196 194 191 188 188 191 175 176 163 169
194 214 221 241 258 264 247 249 245 245 277 273 249 239 237 234 238 241 232 202 183 181 190 199 201 204 205 206 207 209 217 199 196 194 190 186 186 185 194 167 160 164 153
204 215 232 250 251 227 232 234 230 238 248 251 239 233 231 230 229 221 216 205 172 168 176 190 200 206 207 204 206 205 202 191 192 191 189 184 190 188 174 165 156 154 158
207 233 236 214 206 222 228 239 245 255 259 244 239 235 234 226 223 214 204 209 219 180 178 192 197 209 212 214 208 196 193 191 192 193 186 190 202 185 178 193 174 170 164
214 199 184 187 196 217 240 248 251 246 250 238 239 235 236 225 220 214 209 212 213 225 193 194 198 193 194 196 194 188 184 191 197 190 187 179 185 189 179 167 160 169 170
173 164 156 164 184 239 279 274 252 240 233 225 234 235 222 217 218 211 211 211 210 203 207 191 198 188 175 184 180 175 175 181 183 187 197 178 185 179 172 155 158 166 157
158 146 136 115 344 300 292 276 252 235 221 215 228 248 237 218 212 203 205 205 196 198 211 196 161 161 172 177 168 168 167 156 165 142 156 158 181 152 151 159 168 154 153
154 142 125 58 348 327 311 294 260 249 241 243 224 226 226 222 213 204 211 204 196 193 189 166 152 158 159 166 157 154 154 150 160 145 156 154 142 155 158 171 155 155 159
147 138 94 15 358 346 329 306 294 276 250 252 205 210 208 208 203 194 161 179 191 187 183 168 154 154 163 163 167 161 155 155 148 158 151 145 151 153 150 150 156 170 191
146 149 100 39 11 10 347 340 36 46 128 142 173 189 197 184 172 182 190 191 190 189 175 170 156 157 164 166 162 162 159 147 146 149 145 152 151 151 155 161 177 168 168
153 158 97 51 29 24 30 36 72 84 107 125 140 155 179 185 184 180 179 191 197 187 166 164 162 160 159 174 160 157 154 142 142 156 157 152 161 163 170 168 170 179 180
163 167 76 63 41 36 53 41 75 94 116 108 115 139 139 179 189 177 172 164 167 174 169 168 165 169 165 168 170 157 151 151 150 159 169 162 162 166 167 177 181 178 179
172 179 82 79 52 48 64 69 79 95 105 104 102 104 135 120 149 150 145 149 161 166 169 166 168 169 172 164 163 156 151 147 153 158 166 158 161 168 177 180 181 185 188
174 187 155 84 69 61 77 90 84 99 100 97 93 106 106 115 133 150 152 161 165 165 165 169 168 165 170 160 153 149 156 157 158 165 171 171 169 173 181 188 191 196 210
194 193 187 99 100 83 86 101 89 90 109 107 101 108 102 102 111 126 145 158 162 162 163 162 162 165 165 153 159 163 157 167 167 167 174 178 180 178 192 201 204 213 226
Wind_Speed_850mb
81 71 63 56 51 44 41 37 34 31 26 23 22 24 23 23 24 23 21 20 23 19 30 39 39 34 35 34 26 19 31 32 35 41 39 40 33 30 23 28 28 24 25
88 69 66 62 55 48 43 39 34 33 30 28 29 29 29 28 27 30 32 29 29 22 25 33 36 39 39 34 28 25 31 36 39 39 40 39 35 28 24 26 29 24 27
85 69 68 63 57 51 46 40 36 36 36 34 35 35 34 32 33 31 31 31 30 28 26 31 38 38 39 36 29 27 31 40 39 40 40 37 30 26 21 23 24 21 23
69 66 63 63 57 51 43 36 36 39 39 38 39 40 39 36 37 36 33 32 30 28 29 28 31 33 38 37 33 25 31 42 41 39 35 35 33 27 21 22 24 23 24
52 53 53 53 50 46 35 30 34 38 39 39 41 39 42 44 41 42 38 36 31 27 27 23 26 31 32 33 32 29 30 41 42 42 38 32 29 27 23 21 23 26 28
42 40 42 40 45 40 28 27 30 36 38 38 40 43 43 44 40 44 37 34 33 29 30 29 24 29 27 29 34 32 32 40 41 40 38 30 31 28 22 23 21 25 31
41 40 37 34 37 31 25 24 28 33 38 40 43 44 39 34 36 37 38 35 32 29 31 32 28 24 22 14 24 30 31 37 37 40 39 31 29 28 25 22 23 29 42
38 33 24 30 28 32 29 26 29 36 41 41 37 32 24 28 35 39 38 33 27 28 31 32 34 27 20 17 19 27 29 32 34 38 39 33 31 25 25 28 28 31 43
34 20 25 21 25 29 26 29 33 37 39 34 29 23 9 15 10 29 36 35 32 27 30 37 40 32 22 18 17 27 28 30 33 36 40 33 32 30 30 25 30 33 16
25 28 27 24 18 24 29 32 36 34 30 26 24 28 27 9 9 6 14 30 34 29 28 33 35 39 34 24 16 19 25 32 32 37 39 37 34 32 32 33 37 28 32
35 29 26 21 26 28 29 32 31 25 24 22 23 22 32 31 16 5 4 14 30 32 29 32 28 28 28 28 19 18 26 31 33 35 38 39 35 34 39 47 31 33 30
29 24 25 26 27 27 28 23 20 21 20 21 23 26 27 33 36 29 18 6 25 35 33 30 30 28 26 26 21 18 19 31 33 35 37 40 38 37 38 44 34 39 36
22 23 25 23 25 26 20 16 13 10 7 15 19 24 27 30 30 23 24 13 23 29 29 31 27 28 27 26 21 23 21 30 33 32 35 39 40 47 37 38 42 40 38
18 20 22 23 22 17 17 17 17 17 14 20 17 16 20 25 28 26 23 26 18 24 28 29 29 26 26 26 24 28 24 31 32 31 38 41 42 47 45 43 45 39 42
17 19 18 15 13 14 13 15 21 24 23 22 17 17 19 19 24 29 25 28 28 23 25 29 22 30 28 27 25 31 27 32 33 33 45 44 42 49 51 46 41 41 30
14 14 16 12 11 9 10 16 22 21 22 17 16 18 19 22 24 26 29 27 26 28 31 31 29 28 27 29 31 30 28 32 29 25 41 47 45 50 50 43 41 33 26
16 16 13 10 6 5 10 15 21 20 16 14 15 11 12 20 24 27 28 28 24 32 26 27 28 21 24 31 34 33 30 30 25 36 48 72 52 47 43 48 39 31 36
19 18 13 8 2 10 17 16 17 19 26 21 17 13 16 15 22 26 25 24 30 31 24 24 32 29 24 30 35 37 38 33 39 47 48 39 45 51 53 47 35 37 33
21 15 8 5 9 12 11 8 13 22 27 32 29 16 18 18 20 23 29 32 32 29 25 29 42 34 42 41 48 54 46 50 43 31 33 58 58 52 43 36 38 35 27
18 12 8 7 9 10 8 14 19 16 20 30 25 19 18 18 19 20 25 26 39 35 30 40 47 43 40 50 49 60 73 75 58 54 56 48 46 49 48 39 34 29 21
14 10 4 6 10 11 11 8 7 5 5 8 14 16 15 16 18 21 23 31 40 40 36 49 55 61 49 61 74 76 81 74 65 61 62 59 50 48 44 36 25 21 20
14 10 3 7 10 13 11 12 7 8 13 15 12 11 16 23 24 22 20 24 36 46 56 55 64 72 78 62 67 73 82 73 71 58 63 62 43 42 35 29 28 25 17
16 12 4 7 10 14 13 13 12 15 19 17 12 8 9 14 26 21 21 28 44 42 46 50 63 65 70 62 69 81 82 83 82 70 55 46 40 44 38 34 27 18 17
17 11 2 5 9 13 13 14 16 19 21 17 14 10 15 18 20 40 42 44 42 42 49 48 49 57 57 58 73 80 82 69 62 57 50 55 47 40 34 27 22 20 16
19 11 3 4 5 10 14 16 15 16 20 23 20 27 28 27 26 33 43 48 48 47 44 29 41 47 56 68 86 83 77 71 63 57 50 42 42 36 29 25 23 21 17
16 11 6 1 4 7 12 14 15 14 25 28 30 32 29 29 32 31 34 43 52 51 42 39 50 48 60 80 72 64 65 59 61 55 48 36 36 31 23 25 23 22 20
Wind_Direction_850mb
243 244 242 244 248 250 253 252 256 261 263 266 272 275 271 264 265 262 255 261 268 258 234 232 229 228 219 218 224 229 214 216 215 209 212 206 210 215 221 214 215 216 219
246 246 248 248 248 252 254 254 257 261 265 265 271 274 271 262 262 263 264 257 254 255 240 234 232 227 220 226 226 225 214 213 213 218 214 216 217 217 215 216 219 223 224
249 249 252 248 248 252 250 251 256 259 261 267 272 275 271 264 263 269 267 257 254 252 250 240 234 232 223 218 227 225 215 210 217 216 221 218 214 215 217 216 214 215 220
252 252 250 246 246 248 240 251 260 263 266 272 276 277 270 266 265 266 259 259 257 252 245 239 230 223 219 219 223 224 216 209 213 215 212 219 219 216 215 205 210 208 209
252 243 240 238 240 236 238 259 265 269 270 272 278 278 276 274 266 259 261 253 249 250 236 235 222 220 222 225 226 226 213 208 209 212 210 214 211 206 207 210 211 207 204
239 235 237 233 225 222 242 264 274 270 264 271 280 278 273 269 255 253 255 244 241 246 232 231 219 218 218 228 231 226 210 203 209 209 208 204 204 205 206 208 210 204 193
226 229 225 220 212 219 245 260 263 263 270 276 277 278 273 267 251 257 244 240 235 239 229 219 214 199 211 226 218 209 209 200 205 207 204 201 201 203 217 207 197 200 197
218 220 216 201 216 224 242 263 272 276 277 278 274 272 277 258 250 247 239 228 235 232 223 215 210 205 216 223 208 203 206 202 201 206 205 203 200 208 200 202 196 208 179
208 205 210 208 214 224 253 271 275 280 281 275 264 238 237 234 258 234 229 227 225 236 223 211 208 212 216 208 209 208 205 202 199 204 206 199 200 200 194 211 197 207 182
197 196 198 208 224 250 265 270 281 282 274 269 254 236 222 223 204 168 210 226 227 224 219 206 213 220 215 210 211 207 204 205 200 202 200 201 199 199 192 206 203 179 160
185 182 199 216 247 260 267 276 278 273 270 258 247 238 224 220 202 163 115 233 213 210 206 204 205 197 213 212 218 207 207 204 200 201 194 196 190 193 186 182 176 156 178
181 195 209 233 248 258 272 268 265 267 266 258 243 240 236 233 231 239 226 212 196 198 198 200 203 209 206 198 207 207 205 199 197 196 194 191 188 188 191 175 176 163 169
194 214 221 241 258 264 247 249 245 245 277 273 249 239 237 234 238 241 232 202 183 181 190 199 201 204 205 206 207 209 217 199 196 194 190 186 186 185 194 167 160 164 153
204 215 232 250 251 227 232 234 230 238 248 251 239 233 231 230 229 221 216 205 172 168 176 190 200 206 207 204 206 205 202 191 192 191 189 184 190 188 174 165 156 154 158
207 233 236 214 206 222 228 239 245 255 259 244 239 235 234 226 223 214 204 209 219 180 178 192 197 209 212 214 208 196 193 191 192 193 186 190 202 185 178 193 174 170 164
214 199 184 187 196 217 240 248 251 246 250 238 239 235 236 225 220 214 209 212 213 225 193 194 198 193 194 196 194 188 184 191 197 190 187 179 185 189 179 167 160 169 170
173 164 156 164 184 239 279 274 252 240 233 225 234 235 222 217 218 211 211 211 210 203 207 191 198 188 175 184 180 175 175 181 183 187 197 178 185 179 172 155 158 166 157
158 146 136 115 344 300 292 276 252 235 221 215 228 248 237 218 212 203 205 205 196 198 211 196 161 161 172 177 168 168 167 156 165 142 156 158 181 152 151 159 168 154 153
154 142 125 58 348 327 311 294 260 249 241 243 224 226 226 222 213 204 211 204 196 193 189 166 152 158 159 166 157 154 154 150 160 145 156 154 142 155 158 171 155 155 159
147 138 94 15 358 346 329 306 294 276 250 252 205 210 208 208 203 194 161 179 191 187 183 168 154 154 163 163 167 161 155 155 148 158 151 145 151 153 150 150 156 170 191
146 149 100 39 11 10 347 340 36 46 128 142 173 189 197 184 172 182 190 191 190 189 175 170 156 157 164 166 162 162 159 147 146 149 145 152 151 151 155 161 177 168 168
153 158 97 51 29 24 30 36 72 84 107 125 140 155 179 185 184 180 179 191 197 187 166 164 162 160 159 174 160 157 154 142 142 156 157 152 161 163 170 168 170 179 180
163 167 76 63 41 36 53 41 75 94 116 108 115 139 139 179 189 177 172 164 167 174 169 168 165 169 165 168 170 157 151 151 150 159 169 162 162 166 167 177 181 178 179
172 179 82 79 52 48 64 69 79 95 105 104 102 104 135 120 149 150 145 149 161 166 169 166 168 169 172 164 163 156 151 147 153 158 166 158 161 168 177 180 181 185 188
174 187 155 84 69 61 77 90 84 99 100 97 93 106 106 115 133 150 152 161 165 165 165 169 168 165 170 160 153 149 156 157 158 165 171 171 169 173 181 188 191 196 210
194 193 187 99 100 83 86 101 89 90 109 107 101 108 102 102 111 126 145 158 162 162 163 162 162 165 165 153 159 163 157 167 167 167 174 178 180 178 192 201 204 213 226